Find Kosmos-2221

NORAD ID: 22236 Int'l Des: 1992-080 Owner: GRUR Country: RU operational
LEOCIRCULARPOLAR

Current View

Loading 3D Globe...

About Kosmos-2221

Description loading...

Upcoming Passes

Passes for default location (London). Set your location on the main map for personalized predictions.

Altitude History

Loading altitude history...

Two-Line Element Set

1 22236U 92080A 26151.48991674 .00001832 00000-0 15889-3 0 9995
2 22236 82.5041 199.7609 0012523 274.3850 85.5941 14.96487733793171
Epoch: May 31, 2026 • Age: 12 hours

Current Status

Altitude 589.7 km
Velocity 7.57 km/s
Sub-Earth Point 40.63°N, 129.19°E
Launch Date Nov 24, 1992
Age 33.5 years
Type other

Technical Details

Classification Payload
Mass 1750.00 kg
Dry Mass 1750.00 kg
Total Mass 1750.00 kg
Length 3.20 m
Diameter 1.30 m
Span 13.10 m
Shape Cyl + Ant
Manufacturer YUZHUA
Bus Type Tselina-D
Phase Status In Orbit
Owner/State GRUR/RU

Most Searched